Joliet, IL

5:37 PM CDT on April 24, 2017 (GMT -0500)
Joliet Regional

Weather History for KJOT - January, 2013

Change the Weather History Date:

Friday, January 4, 2013

  Actual Average (KARR) Record (KARR)
Temperature  
Mean Temperature 24 °F -  
Max Temperature 36 °F 30 °F 62 °F (1997)
Min Temperature 12 °F 14 °F -17 °F (1999)
Degree Days  
Heating Degree Days 41    
Moisture  
Dew Point 17 °F    
Average Humidity 71    
Maximum Humidity 91    
Minimum Humidity 48    
Precipitation  
Precipitation 0.00 in - - ()
Sea Level Pressure  
Sea Level Pressure 30.23 in    
Wind  
Wind Speed 10 mph (SW)    
Max Wind Speed 17 mph    
Max Gust Speed 28 mph    
Visibility 10 miles    
Events      
Averages and records for this station are not official NWS values.
T = Trace of Precipitation, MM = Missing Value Source: NWS Daily Summary

Daily Weather History Graph

Daily Weather History Graph

Search for Another Location

Airport or City:

Trip Planner

Search our weather history database for the weather conditions in past years. The results will help you decide how hot, cold, wet, or windy it might be!

Date:

Astronomy

Jan. 04, 2013 Rise Set
Actual Time 7:19 AM CST 4:36 PM CST
Civil Twilight 6:48 AM CST 5:07 PM CST
Nautical Twilight 6:13 AM CST 5:42 PM CST
Astronomical Twilight 5:39 AM CST 6:15 PM CST
Moon No Moon Rise 10:56 AM CST (1/4)
Length of Visible Light 10h 19m
Length of Day
9h 17m
Waning Gibbous, 55% of the Moon is Illuminated
Jan 4
Waning Gibbous
Jan 4
Last Quarter
Jan 11
New
Jan 18
First Quarter
Jan 26
Full

Hourly Weather History & Observations

Time (CST) Temp. Windchill Dew Point Humidity Pressure Visibility Wind Dir Wind Speed Gust Speed Precip Events Conditions
12:15 AM 17.8 °F 6.6 °F 13.3 °F 83% 30.27 in 10.0 mi WSW 9.2 mph - N/A   Clear
12:35 AM 17.4 °F 5.4 °F 12.0 °F 79% 30.28 in 10.0 mi WSW 10.4 mph 16.1 mph N/A   Clear
12:55 AM 16.3 °F 4.9 °F 10.9 °F 79% 30.27 in 10.0 mi WSW 9.2 mph - N/A   Clear
1:15 AM 15.8 °F 5.1 °F 10.4 °F 79% 30.27 in 10.0 mi SW 8.1 mph - N/A   Clear
1:35 AM 14.7 °F 3.8 °F 10.2 °F 82% 30.26 in 10.0 mi SW 8.1 mph - N/A   Clear
1:55 AM 14.4 °F 4.3 °F 9.9 °F 82% 30.26 in 10.0 mi SW 6.9 mph - N/A   Clear
2:15 AM 14.0 °F 5.1 °F 9.5 °F 82% 30.26 in 10.0 mi SW 5.8 mph - N/A   Clear
2:35 AM 13.8 °F 2.7 °F 9.5 °F 83% 30.26 in 10.0 mi SW 8.1 mph - N/A   Clear
2:55 AM 13.6 °F 2.5 °F 9.5 °F 84% 30.26 in 10.0 mi SW 8.1 mph - N/A   Clear
3:15 AM 13.5 °F 4.4 °F 9.3 °F 84% 30.26 in 10.0 mi WSW 5.8 mph - N/A   Clear
5:35 AM 12.7 °F 1.4 °F 9.1 °F 86% 30.25 in 10.0 mi SW 8.1 mph - N/A   Clear
6:15 AM 13.1 °F 0.9 °F 9.3 °F 85% 30.24 in 10.0 mi SSW 9.2 mph - N/A   Clear
6:35 AM 13.1 °F 0.9 °F 9.3 °F 85% 30.24 in 10.0 mi SSW 9.2 mph - N/A   Clear
6:55 AM 13.3 °F 1.1 °F 9.3 °F 84% 30.24 in 10.0 mi SW 9.2 mph - N/A   Clear
7:15 AM 13.5 °F 1.3 °F 9.5 °F 84% 30.24 in 10.0 mi SW 9.2 mph - N/A   Clear
7:35 AM 14.0 °F 2.0 °F 10.2 °F 85% 30.24 in 10.0 mi SW 9.2 mph 18.4 mph N/A   Clear
7:55 AM 14.9 °F 2.3 °F 10.9 °F 84% 30.23 in 10.0 mi SSW 10.4 mph - N/A   Clear
8:15 AM 15.3 °F 2.8 °F 10.9 °F 83% 30.23 in 10.0 mi SSW 10.4 mph - N/A   Clear
8:35 AM 17.6 °F 5.0 °F 12.2 °F 79% 30.24 in 10.0 mi SW 11.5 mph 18.4 mph N/A   Clear
8:55 AM 18.3 °F 4.6 °F 13.1 °F 80% 30.24 in 10.0 mi SW 13.8 mph 20.7 mph N/A   Clear
9:15 AM 20.1 °F 8.8 °F 14.7 °F 80% 30.24 in 10.0 mi SW 10.4 mph 17.3 mph N/A   Clear
9:35 AM 22.5 °F 9.4 °F 16.0 °F 76% 30.25 in 10.0 mi SW 15.0 mph 18.4 mph N/A   Clear
9:55 AM 23.4 °F 12.8 °F 16.3 °F 75% 30.25 in 10.0 mi SW 10.4 mph 19.6 mph N/A   Clear
10:15 AM 25.5 °F 14.9 °F 17.2 °F 71% 30.24 in 10.0 mi SW 11.5 mph 17.3 mph N/A   Clear
10:35 AM 26.6 °F 16.2 °F 17.6 °F 69% 30.24 in 10.0 mi SSW 11.5 mph - N/A   Clear
10:55 AM 28.4 °F 16.6 °F 17.6 °F 64% 30.23 in 10.0 mi SW 16.1 mph 20.7 mph N/A   Clear
11:15 AM 30.2 °F 19.8 °F 17.6 °F 60% 30.22 in 10.0 mi SW 13.8 mph 23.0 mph N/A   Clear
11:35 AM 31.1 °F 20.9 °F 18.0 °F 58% 30.21 in 10.0 mi SW 13.8 mph 20.7 mph N/A   Clear
11:55 AM 32.0 °F 22.1 °F 18.3 °F 57% 30.20 in 10.0 mi SW 13.8 mph 24.2 mph N/A   Clear
12:15 PM 33.8 °F 25.3 °F 19.4 °F 56% 30.19 in 10.0 mi SW 11.5 mph 24.2 mph N/A   Clear
12:35 PM 34.7 °F 25.5 °F 18.7 °F 52% 30.18 in 10.0 mi WSW 13.8 mph 27.6 mph N/A   Clear
12:55 PM 35.1 °F 26.4 °F 18.5 °F 51% 30.18 in 10.0 mi SW 12.7 mph 26.5 mph N/A   Clear
1:15 PM 36.0 °F 26.0 °F 18.9 °F 50% 30.17 in 10.0 mi SW 17.3 mph 20.7 mph N/A   Clear
1:35 PM 35.8 °F 26.1 °F 18.5 °F 50% 30.16 in 10.0 mi SW 16.1 mph 25.3 mph N/A   Clear
1:55 PM 36.5 °F 28.2 °F 18.5 °F 48% 30.17 in 10.0 mi WSW 12.7 mph 21.9 mph N/A   Clear
2:15 PM 36.5 °F 27.4 °F 18.7 °F 49% 30.17 in 10.0 mi SW 15.0 mph 25.3 mph N/A   Clear
2:35 PM 36.7 °F 27.2 °F 19.4 °F 50% 30.17 in 10.0 mi SW 16.1 mph 21.9 mph N/A   Clear
2:55 PM 36.3 °F 28.4 °F 19.4 °F 50% 30.18 in 10.0 mi SW 11.5 mph 23.0 mph N/A   Clear
3:15 PM 36.0 °F 27.1 °F 19.4 °F 51% 30.18 in 10.0 mi SW 13.8 mph 24.2 mph N/A   Clear
3:35 PM 35.6 °F 28.0 °F 19.4 °F 52% 30.18 in 10.0 mi SW 10.4 mph 19.6 mph N/A   Clear
3:55 PM 35.2 °F 27.1 °F 19.6 °F 53% 30.19 in 10.0 mi SW 11.5 mph 17.3 mph N/A   Clear
4:15 PM 34.3 °F 25.9 °F 19.4 °F 54% 30.19 in 10.0 mi WSW 11.5 mph - N/A   Clear
4:35 PM 33.1 °F 25.5 °F 20.1 °F 59% 30.20 in 10.0 mi SW 9.2 mph - N/A   Clear
4:55 PM 32.2 °F 23.8 °F 21.0 °F 63% 30.21 in 10.0 mi SW 10.4 mph 16.1 mph N/A   Clear
5:15 PM 32.0 °F 24.2 °F 21.2 °F 64% 30.21 in 10.0 mi SSW 9.2 mph 16.1 mph N/A   Clear
5:35 PM 31.8 °F 23.3 °F 21.2 °F 65% 30.22 in 10.0 mi SSW 10.4 mph 18.4 mph N/A   Clear
5:55 PM 31.1 °F 22.4 °F 21.2 °F 67% 30.22 in 10.0 mi SW 10.4 mph - N/A   Clear
6:15 PM 30.9 °F 22.8 °F 21.2 °F 67% 30.22 in 10.0 mi SW 9.2 mph - N/A   Clear
6:35 PM 30.6 °F 22.4 °F 21.2 °F 68% 30.23 in 10.0 mi SSW 9.2 mph - N/A   Clear
6:55 PM 29.8 °F 23.9 °F 21.2 °F 70% 30.23 in 10.0 mi SSW 5.8 mph - N/A   Clear
7:15 PM 29.3 °F 22.3 °F 21.2 °F 72% 30.23 in 10.0 mi SSW 6.9 mph - N/A   Clear
7:35 PM 29.8 °F 20.3 °F 21.7 °F 72% 30.23 in 10.0 mi SW 11.5 mph - N/A   Clear
7:55 PM 29.8 °F 23.0 °F 21.6 °F 71% 30.23 in 10.0 mi SW 6.9 mph - N/A   Clear
8:15 PM 29.5 °F 22.5 °F 21.6 °F 72% 30.23 in 10.0 mi SW 6.9 mph - N/A   Clear
8:35 PM 29.3 °F 23.2 °F 21.6 °F 73% 30.24 in 10.0 mi SSW 5.8 mph - N/A   Clear
8:55 PM 28.9 °F 21.9 °F 21.6 °F 74% 30.24 in 10.0 mi SSW 6.9 mph - N/A   Clear
9:15 PM 28.4 °F 21.2 °F 21.6 °F 76% 30.24 in 10.0 mi SSW 6.9 mph - N/A   Clear
9:35 PM 27.5 °F 22.2 °F 21.2 °F 77% 30.24 in 10.0 mi SSW 4.6 mph - N/A   Clear
9:55 PM 27.0 °F 21.6 °F 21.2 °F 79% 30.24 in 10.0 mi SSW 4.6 mph - N/A   Clear
10:15 PM 27.1 °F 21.8 °F 21.4 °F 79% 30.24 in 10.0 mi SSW 4.6 mph - N/A   Clear
10:35 PM 27.0 °F 21.6 °F 21.4 °F 79% 30.24 in 10.0 mi SW 4.6 mph - N/A   Clear
10:55 PM 26.6 °F 22.6 °F 21.4 °F 81% 30.24 in 10.0 mi SSW 3.5 mph - N/A   Clear
11:15 PM 24.1 °F - 20.1 °F 85% 30.24 in 10.0 mi Calm Calm - N/A   Clear
11:35 PM 23.4 °F - 20.1 °F 87% 30.23 in 10.0 mi Calm Calm - N/A   Clear
11:55 PM 20.1 °F - 18.0 °F 91% 30.22 in 10.0 mi Calm Calm - N/A   Clear